Weather History for Broken Bow, NE

Change the Weather History Date:

Thursday, August 22, 2013

  Actual Average Record
Temperature  
Mean Temperature 72 °F 71 °F  
Max Temperature 80 °F 83 °F 107 °F (1938)
Min Temperature 64 °F 58 °F 36 °F (1904)
Degree Days  
Heating Degree Days 0 0  
Month to date heating degree days 1 0  
Since 1 June heating degree days 52 51  
Cooling Degree Days 7 6  
Month to date cooling degree days 117 174  
Year to date cooling degree days 560 648  
Since 1 June cooling degree days 525 614  
Growing Degree Days 21 (Base 50)    
Moisture  
Dew Point 66 °F    
Average Humidity 84    
Maximum Humidity 100    
Minimum Humidity 67    
Precipitation  
Precipitation 0.19 in 0.07 in 1.82 in (1935)
Sea Level Pressure  
Sea Level Pressure 30.05 in    
Wind  
Wind Speed 7 mph (ENE)    
Max Wind Speed 22 mph    
Max Gust Speed 31 mph    
Visibility 9 miles    
Events Rain , Thunderstorm    
T = Trace of Precipitation, MM = Missing Value Source: NWS Daily Summary

Daily Weather History Graph

Daily Weather History Graph

Search for Another Location

Airport:

Trip Planner

Search our weather history database for the weather conditions in past years. The results will help you decide how hot, cold, wet, or windy it might be!

Date:

Astronomy

Aug. 22, 2013 Rise Set
Actual Time 6:54 AM CDT 8:27 PM CDT
Civil Twilight 6:25 AM CDT 8:56 PM CDT
Nautical Twilight 5:50 AM CDT 9:31 PM CDT
Astronomical Twilight 5:13 AM CDT 10:08 PM CDT
Moon 9:09 PM CDT (8/22) 8:47 AM CDT (8/22)
Length of Visible Light 14h 30m
Length of Day
13h 32m
Waning Gibbous, 96% of the Moon is Illuminated
Aug 22
Waning Gibbous
Aug 28
Last Quarter
Sep 5
New
Sep 12
First Quarter
Sep 19
Full

Hourly Weather History & Observations

Time (CDT) Temp. Dew Point Humidity Pressure Visibility Wind Dir Wind Speed Gust Speed Precip Events Conditions
12:53 AM 68.0 °F 68.0 °F 100% 29.97 in 10.0 mi NNE 11.5 mph - 0.01 in Rain Light Rain
1:53 AM 66.0 °F 64.9 °F 96% 29.97 in 10.0 mi NE 13.8 mph 21.9 mph 0.01 in   Clear
2:01 AM 66.2 °F 64.4 °F 94% 30.04 in 10.0 mi NE 13.8 mph 20.7 mph N/A   Partly Cloudy
2:32 AM 66.2 °F 64.4 °F 94% 30.07 in 10.0 mi ENE 4.6 mph - N/A Thunderstorm Scattered Clouds
2:45 AM 66.2 °F 64.4 °F 94% 30.10 in 10.0 mi NNE 4.6 mph - N/A Thunderstorm Thunderstorm
2:53 AM 66.0 °F 64.9 °F 96% 30.03 in 4.0 mi East 5.8 mph - 0.04 in Rain , Thunderstorm Thunderstorms and Rain
3:11 AM 64.4 °F 64.4 °F 100% 30.09 in 5.0 mi ESE 6.9 mph - 0.05 in Rain , Thunderstorm Thunderstorms and Rain
3:19 AM 64.4 °F 64.4 °F 100% 30.07 in 1.8 mi SSE 10.4 mph - 0.11 in Rain , Thunderstorm Heavy Thunderstorms and Rain
3:28 AM 64.4 °F 64.4 °F 100% 30.05 in 4.0 mi SE 10.4 mph - 0.13 in Rain , Thunderstorm Rain
3:53 AM 64.9 °F 64.0 °F 97% 29.96 in 10.0 mi SE 11.5 mph 23.0 mph 0.13 in Rain , Thunderstorm Light Rain
4:03 AM 64.4 °F 64.4 °F 100% 30.03 in 10.0 mi SE 16.1 mph 23.0 mph 0.01 in Rain Light Rain
4:53 AM 64.9 °F 64.0 °F 97% 29.97 in 10.0 mi SE 8.1 mph - 0.01 in   Partly Cloudy
5:39 AM 64.4 °F 64.4 °F 100% 30.06 in 9.0 mi NNE 4.6 mph - N/A   Scattered Clouds
5:48 AM 64.4 °F 64.4 °F 100% 30.07 in 10.0 mi NNE 3.5 mph - N/A   Mostly Cloudy
5:53 AM 64.9 °F 64.9 °F 100% 30.01 in 10.0 mi NE 4.6 mph - N/A   Mostly Cloudy
6:49 AM 66.2 °F 64.4 °F 94% 30.09 in 10.0 mi Calm Calm - N/A   Overcast
6:53 AM 66.0 °F 64.9 °F 96% 30.02 in 10.0 mi ENE 3.5 mph - N/A   Overcast
7:37 AM 64.4 °F 64.4 °F 100% 30.09 in 7.0 mi North 3.5 mph - N/A   Scattered Clouds
7:53 AM 64.9 °F 64.9 °F 100% 30.03 in 8.0 mi North 4.6 mph - N/A   Clear
8:53 AM 69.1 °F 66.9 °F 93% 30.02 in 10.0 mi North 4.6 mph - N/A   Clear
9:53 AM 72.0 °F 66.0 °F 81% 30.03 in 10.0 mi North 5.8 mph - N/A   Scattered Clouds
10:08 AM 73.4 °F 66.2 °F 78% 30.10 in 10.0 mi North 4.6 mph - N/A   Mostly Cloudy
10:53 AM 73.0 °F 66.0 °F 79% 30.06 in 10.0 mi NW 3.5 mph - N/A   Overcast
11:53 AM 77.0 °F 66.9 °F 71% 30.06 in 10.0 mi Variable 6.9 mph - N/A   Scattered Clouds
12:01 PM 75.2 °F 68.0 °F 78% 30.11 in 10.0 mi North 6.9 mph - N/A   Mostly Cloudy
12:48 PM 77.0 °F 66.2 °F 69% 30.12 in 10.0 mi NE 9.2 mph - N/A   Mostly Cloudy
12:53 PM 75.9 °F 68.0 °F 76% 30.06 in 10.0 mi NNE 6.9 mph - N/A   Mostly Cloudy
1:53 PM 77.0 °F 66.9 °F 71% 30.05 in 10.0 mi East 9.2 mph - N/A   Overcast
2:45 PM 78.8 °F 69.8 °F 74% 30.11 in 10.0 mi ENE 8.1 mph - N/A   Overcast
2:53 PM 78.1 °F 66.9 °F 68% 30.05 in 10.0 mi NE 8.1 mph - N/A   Overcast
3:53 PM 77.0 °F 70.0 °F 79% 30.04 in 10.0 mi NE 8.1 mph - N/A   Mostly Cloudy
4:05 PM 77.0 °F 69.8 °F 78% 30.10 in 10.0 mi NE 10.4 mph - N/A   Overcast
4:17 PM 77.0 °F 69.8 °F 78% 30.09 in 10.0 mi ENE 9.2 mph - N/A   Overcast
4:53 PM 77.0 °F 69.1 °F 76% 30.03 in 10.0 mi East 9.2 mph - N/A   Overcast
5:53 PM 77.0 °F 69.1 °F 76% 30.03 in 10.0 mi East 6.9 mph - N/A   Mostly Cloudy
6:53 PM 75.0 °F 68.0 °F 79% 30.03 in 10.0 mi East 6.9 mph - N/A   Mostly Cloudy
7:53 PM 73.0 °F 68.0 °F 84% 30.03 in 10.0 mi East 4.6 mph - N/A   Partly Cloudy
8:53 PM 70.0 °F 66.9 °F 90% 30.03 in 9.0 mi East 3.5 mph - N/A   Clear
9:53 PM 69.1 °F 66.9 °F 93% 30.04 in 7.0 mi East 3.5 mph - N/A   Mostly Cloudy
10:53 PM 70.0 °F 68.0 °F 93% 30.04 in 7.0 mi East 5.8 mph - N/A   Overcast
11:53 PM 70.0 °F 68.0 °F 93% 30.04 in 7.0 mi East 5.8 mph - N/A   Partly Cloudy